Location: Unspecified
(49.2170°N, 0.0000°E)
Time: 03:35:44
(UTC+00:00)

Vanguard 1 - Pass Details

Date: 31 January 2021
Orbit: 649 x 3834 km, 34.2° (Epoch: 08 March)

Event Time Altitude Azimuth Distance (km) Brightness Sun altitude
Rises 19:18:45 0° 277° (W) 7,899 16.1 -23.5°
Reaches altitude 10° 19:29:46 10° 255° (WSW) 6,916 15.3 -25.3°
Maximum altitude 19:36:50 12° 236° (WSW) 6,535 14.8 -26.4°
Drops below altitude 10° 19:43:32 10° 218° (SW) 6,432 14.6 -27.5°
Sets 19:52:54 0° 193° (SSW) 6,786 14.4 -29.0°
